Location: Newark
(48.6461°N, 4.3644°W)
Time: 19:59:17
(UTC+00:00)

S-56A Canister/Altair - Pass Details

Date: 22 January 2020
Orbit: 633 x 2499 km, 38.9° (Epoch: 22 February)

Event Time Altitude Azimuth Distance (km) Brightness Sun altitude
Rises 20:14:40 0° 206° (SSW) 3,842 11.3 -32.0°
Enters shadow 20:18:03 - 188° (S) 2,853 10.4 -32.5°
Reaches altitude 10° 20:19:41 10° 175° (S) 2,494 - -32.8°
Maximum altitude 20:21:29 11° 156° (SSE) 2,266 - -33.1°
Drops below altitude 10° 20:23:10 10° 137° (SE) 2,268 - -33.3°
Sets 20:27:04 0° 103° (ESE) 3,004 - -34.0°
